Location: ???
(33.5272°N, 35.4889°E)
Time: 00:41:58
(UTC+00:00)

Daily predictions for brighter satellites

Satellite Brightness Start Highest point End
(mag) Time Altitude Azimuth Time Altitude Azimuth Time Altitude Azimuth
BREEZE-M DEB (TANK) 4.3 00:33:33 68° S 00:34:11 71° SE 00:39:11 10° ENE
NOSS 3-3 (A) 4.3 00:47:39 54° E 00:47:39 54° E 00:53:11 10° NE
NOSS 3-3 (C) 4.3 00:47:49 53° E 00:47:49 53° E 00:53:16 10° NE
Cosmos 1697 Rocket 4.2 00:50:48 27° N 00:50:48 27° N 00:53:29 10° N
Cosmos 1980 Rocket 2.7 00:53:31 53° NNE 00:53:31 53° NNE 00:57:47 10° NNE
USA 267 4.5 00:49:41 10° NNE 00:54:57 27° NNW 00:54:57 27° NNW
H-2A R/B 4.0 00:52:31 10° SE 00:56:11 28° ENE 00:59:56 10° NNE
Cosmos 2322 Rocket 4.4 00:53:46 10° SSE 00:57:49 20° E 01:01:53 10° NE
CZ-2C R/B 3.9 00:58:29 10° NNE 01:03:14 36° E 01:06:11 20° SSE
SL-16 R/B 3.8 01:01:41 16° SSE 01:05:14 31° ESE 01:10:07 10° NE
BREEZE-M DEB (TANK) 4.1 01:09:21 55° W 01:10:52 69° NNW 01:31:57 10° ENE
Cosmos 1812 3.8 01:17:10 43° ENE 01:17:10 43° ENE 01:20:29 10° NNE
Meteor 2-6 Rocket 4.4 01:17:30 34° S 01:19:58 70° E 01:25:40 10° NNE
Celestis-02/Orion 38 4.5 01:16:01 10° SSE 01:21:21 86° WSW 01:26:35 10° NNW
Skynet4D Del rocket 4.2 01:21:40 42° S 01:21:44 42° S 01:27:22 10° ESE
SL-4 R/B 3.2 01:21:44 38° SE 01:22:12 39° SE 01:26:35 10° ENE
Landsat 5 4.0 01:20:09 10° SSE 01:24:35 64° ENE 01:29:03 10° N
USA 234 3.6 01:19:36 10° ESE 01:26:01 63° NE 01:32:27 10° NW
Cosmos 1934 Rocket 3.8 01:23:04 10° N 01:29:06 75° W 01:35:10 10° S
Cosmos 1500 4.2 01:26:04 10° N 01:29:46 45° E 01:33:25 10° SSE
Lacrosse 5 3.8 01:32:48 17° NNW 01:32:48 17° NNW 01:35:45 10° N
ERBS 3.6 01:37:01 34° NNE 01:37:01 34° NNE 01:39:08 10° NNE
Cosmos 1238 Rocket 3.8 01:30:39 10° N 01:37:11 72° W 01:43:01 10° S
CZ-4B R/B 4.3 01:36:50 10° ESE 01:39:00 18° ENE 01:41:12 10° NNE
IRIDIUM 114 4.5 01:39:05 10° N 01:44:19 73° E 01:49:30 10° S
Cosmos 44 4.3 01:46:22 26° NW 01:46:22 26° NW 01:49:37 10° N
deb Chang Zheng 4 4.5 01:41:55 10° NNE 01:46:04 47° E 01:50:09 10° S
CSL-04 DEB 4.4 01:42:06 10° S 01:46:19 72° WSW 01:50:38 10° NNW
DELTA 4 R/B 4.2 01:37:39 28° W 01:46:27 53° SSW 01:51:48 10° ESE
Cosmos 1707 Rocket 4.1 01:44:29 10° S 01:48:42 57° E 01:52:57 10° NNE
MSX 4.3 01:43:42 10° N 01:48:55 37° WNW 01:49:36 35° W
Cosmos 921 Rocket 3.3 01:50:57 42° WNW 01:50:57 42° WNW 01:54:38 10° N
Timation 1 Rocket 4.2 01:44:39 10° NNW 01:50:39 76° WSW 01:56:37 10° SSE
ADEOS 4.1 01:45:44 10° NNE 01:50:53 59° ESE 01:56:01 10° S
Cosmos 1605 Rocket 3.9 01:45:26 10° N 01:51:50 78° W 01:58:12 10° S
Cosmos 2228 Rocket 3.7 01:53:39 35° WNW 01:53:39 35° WNW 01:57:10 10° NNW
IRIDIUM 103 4.3 01:48:12 10° N 01:53:27 90° E 01:58:39 10° S
IDEFIX/ARIANE 42P 4.1 01:50:59 10° NNW 01:53:41 19° NW 01:53:41 19° NW
Meteor 1-27 Rocket 3.9 01:55:19 10° S 02:01:13 79° E 02:07:10 10° N
OE (NEXTSAT) 4.2 02:04:55 39° WNW 02:06:05 81° SW 02:09:32 10° SE
IRIDIUM 106 4.3 02:06:36 10° N 02:11:44 59° W 02:16:50 10° SSW
ALOS 2.5 02:07:52 10° NNE 02:12:32 70° ESE 02:17:09 10° S
Cosmos 841 Rocket 4.0 02:07:28 10° S 02:12:34 61° ESE 02:17:44 10° NNE
Cosmos 1727 Rocket 4.1 02:11:52 10° SSW 02:18:04 55° W 02:24:17 10° N
Meteor 1-4 Rocket 3.2 02:18:17 28° W 02:18:49 30° WNW 02:21:56 10° NNW
Cosmos 1869 Rocket 3.7 02:14:43 10° NNW 02:18:53 47° W 02:23:00 10° SSW
Cosmos 1536 3.4 02:15:12 10° N 02:19:14 60° E 02:23:14 10° SSE
Cosmos 1862 Rocket 4.0 02:18:06 10° S 02:22:28 67° E 02:26:49 10° NNE
Chandra Rocket (1) 4.1 02:12:36 17° W 02:22:38 41° SSW 02:27:23 10° SE
Cosmos 1763 Rocket 3.7 02:18:25 12° SW 02:23:15 50° WNW 02:28:26 10° N
Cosmos 1570 Rocket 4.2 02:18:13 10° S 02:23:29 77° ESE 02:28:50 10° NNE
Cosmos 1484 Rocket 2.7 02:20:22 10° N 02:24:21 76° WNW 02:28:20 10° SSW
Cosmos 2360 Rocket 2.6 02:20:28 10° S 02:26:04 68° ESE 02:31:42 10° NNE
Cosmos 2100 Rocket 4.3 02:20:01 10° N 02:26:24 77° E 02:32:45 10° S
Cosmos 1689 Rocket 4.1 02:25:47 10° SE 02:28:27 32° ENE 02:31:09 10° N
H-2A R/B 3.3 02:28:55 10° SW 02:32:06 20° W 02:35:21 10° NW
X-37B 3.4 02:30:52 10° NNW 02:32:17 12° N 02:33:42 10° NE
Cosmos 1437 Rocket 3.9 02:29:20 10° SSE 02:32:55 44° E 02:36:32 10° NNE
SJ 16-02 1.5 02:30:36 10° NNW 02:34:50 49° WSW 02:39:04 10° S
Meteor 1-31 Rocket 2.7 02:31:15 10° N 02:35:03 67° WNW 02:38:52 10° SSW
ERS-2 3.0 02:32:25 10° SSW 02:35:32 26° W 02:38:40 10° NW
Cosmos 1980 Rocket 4.1 02:35:42 10° WNW 02:36:52 11° NW 02:38:03 10° NW
CZ-2C R/B 3.7 02:37:15 10° NNW 02:41:10 22° WNW 02:45:06 10° WSW
Cosmos 2322 Rocket 2.6 02:36:04 10° SW 02:41:26 44° WNW 02:46:52 10° N
Cosmos 2123 Rocket 4.3 02:36:48 10° S 02:42:59 75° E 02:49:15 10° N
METEOR-M 4.1 02:38:34 10° N 02:43:53 69° WNW 02:49:10 10° SSW
Cosmos 2237 4.2 02:40:24 10° SSW 02:46:04 72° WNW 02:51:48 10° NNE
FENGYUN 3A 3.8 02:41:42 10° N 02:46:56 52° WNW 02:52:09 10° SSW
FALCON 9 DEB 4.3 02:44:41 13° W 02:47:12 27° NW 02:50:12 10° NNE
Meteor PRIRODA 3.8 02:44:17 10° NNE 02:47:57 78° ESE 02:51:34 10° S
Cosmos 1459 Rocket 3.9 02:42:13 10° N 02:48:17 77° W 02:54:18 10° S
SL-16 R/B 3.0 02:44:16 10° WSW 02:49:13 30° WNW 02:54:11 10° N
Cosmos 2263 Rocket 2.5 02:46:02 10° NW 02:51:25 45° WSW 02:56:47 10° S
Cosmos 990 Rocket 4.1 02:46:27 10° NNW 02:51:32 56° WSW 02:56:37 10° S
COSMO-SKYMED 1 2.9 02:50:22 10° SSE 02:54:40 72° ENE 02:59:00 10° N
SJ-12 3.9 02:52:21 10° N 02:56:26 64° WNW 03:00:31 10° SSW
Cosmos 540 Rocket 3.7 02:51:47 10° SW 02:56:45 48° WNW 03:01:45 10° N
Cosmos 1844 Rocket 4.5 02:53:14 10° N 02:58:25 37° ENE 03:03:36 10° SE
ATLAS 2AS CENTAUR R/B 4.1 02:52:20 10° NNW 02:59:15 42° NE 03:05:37 10° ESE
Cosmos 44 Rocket 3.4 02:55:20 10° SW 02:59:53 52° WNW 03:04:34 10° NNE
